Location: Eindhoven
(51.4416°N, 5.4697°E)
Time: 18:23:48
(UTC+01:00)

deb Explorer IX - Pass Details

Date: 19 November 2019
Orbit: 546 x 1104 km, 38.8° (Epoch: 11 December)

Event Time Altitude Azimuth Distance (km) Brightness Sun altitude
Rises 04:58:31 0° 253° (WSW) 3,405 - -28.2°
Reaches altitude 10° 05:01:56 10° 236° (SW) 2,348 - -27.6°
Maximum altitude 05:05:31 18° 195° (SSW) 1,743 - -27.1°
Exits shadow 05:06:46 16° 177° (S) 1,776 ? -26.9°
Drops below altitude 10° 05:08:47 10° 153° (SSE) 2,106 ? -26.6°
Sets 05:11:39 0° 133° (SE) 2,923 ? -26.1°
